Flag for Germany Weather past 2 weeks in Papenburg, Lower Saxony, Germany

Now
55 °F

Scattered clouds.


Feels Like: 55 °F
Forecast: 48 / 56 °F
Wind: 3 mph from South

Location: Emden-Koenigspolder

Current Time: May 24, 2015 at 12:20:33 PM

Latest Report: May 24, 2015 at 12:00 PM


Visibility: 12 mi

Pressure: 30.13 "Hg

Humidity: 65%

Dew point: 43 °F

Location of PapenburgLocation

Historic Weather in Papenburg — Graph

°F

Papenburg temperature yesterday

Maximum temperature yesterday: 57 °F (at 1:00 AM)
Minimum temperature yesterday: 49 °F (at 8:00 AM)
Average temperature yesterday: 53 °F

Past Weeks' High & Low Weather Summary

 TemperatureHumidityPressure
High76 °F (May 11, 6:00 PM)100% (May 12, 1:00 AM)30.32 "Hg (May 12, 1:00 AM)
Low36 °F (May 15, 4:00 AM)41% (May 11, 4:00 PM)29.54 "Hg (May 18, 9:00 PM)
Average52 °F75%30.04 "Hg
* Reported May 9 10:00 AM — May 24 10:00 AM, Papenburg, Weather by CustomWeather, © 2015

Note: Actual official high and low records may vary slightly from our data, if they occured in-between our weather recording intervals... More about our weather records

Advertising

Papenburg weather history for previous 24 hours

 ConditionsComfort  
Time TempWeatherWind HumidityBarometerVisibility
10:00 AM
Sun, May 24
51 °FOvercast.3 mph68%30.16 "Hg15 mi
9:00 AM49 °FOvercast.3 mph69%30.16 "Hg22 mi
8:00 AM48 °FOvercast.2 mph73%30.16 "Hg25 mi
7:00 AM48 °FOvercast.1 mph74%30.16 "Hg25 mi
6:00 AM47 °FOvercast.1 mph77%30.17 "Hg25 mi
4:00 AM47 °FOvercast.1 mph79%30.17 "Hg37 mi
3:00 AM47 °FOvercast.1 mph76%30.18 "Hg31 mi
2:00 AM48 °FOvercast.2 mph74%30.19 "Hg28 mi
1:00 AM47 °FOvercast.2 mph77%30.20 "Hg25 mi
12:00 AM49 °FOvercast.3 mph71%30.21 "Hg28 mi
10:00 PM
Sat, May 23
49 °FOvercast.3 mph68%30.22 "Hg28 mi
9:00 PM50 °FOvercast.3 mph72%30.21 "Hg25 mi
8:00 PM51 °FOvercast.5 mph67%30.20 "Hg25 mi
7:00 PM52 °FOvercast.6 mph66%30.20 "Hg19 mi
6:00 PM52 °FOvercast.7 mph62%30.21 "Hg13 mi
4:00 PM54 °FPartly sunny.6 mph59%30.21 "Hg10 mi
3:00 PM55 °FPartly sunny.7 mph59%30.21 "Hg14 mi
2:00 PM55 °FPartly sunny.7 mph61%30.22 "Hg11 mi
1:00 PM56 °FPartly sunny.7 mph60%30.22 "Hg11 mi
12:00 PM53 °FOvercast.6 mph65%30.22 "Hg12 mi
Weather by CustomWeather, © 2015

See weather overviewHow to use our weather pages